Albuquerque, NM

3:20 PM MST on December 15, 2017 (GMT -0700)
Albuquerque International Sunport

Weather History for KABQ - November, 2013

Change the Weather History Date:

Tuesday, November 19, 2013

  Actual Average Record
Temperature  
Mean Temperature 47 °F 43 °F  
Max Temperature 61 °F 54 °F 72 °F (1915)
Min Temperature 33 °F 33 °F 16 °F (1921)
Degree Days  
Heating Degree Days 18 22  
Month to date heating degree days 297 338  
Since 1 July heating degree days 594 604  
Cooling Degree Days 0 0  
Month to date cooling degree days 0 0  
Year to date cooling degree days 1565 1322  
Moisture  
Dew Point 32 °F    
Average Humidity 57    
Maximum Humidity 82    
Minimum Humidity 32    
Precipitation  
Precipitation 0.00 in 0.02 in 0.76 in (1940)
Month to date precipitation 0.34 0.37  
Year to date precipitation 8.36 8.75  
Snow  
Snow 0.00 in - - ()
Month to date snowfall 0.0  
Since 1 July snowfall 0.0  
Since 1 September snowfall 0.0  
Snow Depth 0.00 in    
Sea Level Pressure  
Sea Level Pressure 29.97 in    
Wind  
Wind Speed 4 mph (SE)    
Max Wind Speed 12 mph    
Max Gust Speed 13 mph    
Visibility 10 miles    
Events      
T = Trace of Precipitation, MM = Missing Value Source: NWS Daily Summary

Daily Weather History Graph

Daily Weather History Graph

Search for Another Location

Airport or City:

Trip Planner

Search our weather history database for the weather conditions in past years. The results will help you decide how hot, cold, wet, or windy it might be!

Date:

Astronomy

Nov. 19, 2013 Rise Set
Actual Time 6:45 AM MST 4:58 PM MST
Civil Twilight 6:18 AM MST 5:25 PM MST
Nautical Twilight 5:47 AM MST 5:56 PM MST
Astronomical Twilight 5:17 AM MST 6:26 PM MST
Moon 6:52 PM MST (11/19) 8:25 AM MST (11/19)
Length of Visible Light 11h 07m
Length of Day
10h 13m
Waning Gibbous, 96% of the Moon is Illuminated
Nov 19
Waning Gibbous
Nov 25
Last Quarter
Dec 2
New
Dec 9
First Quarter
Dec 17
Full

Hourly Weather History & Observations

Time (MST) Temp. Windchill Dew Point Humidity Pressure Visibility Wind Dir Wind Speed Gust Speed Precip Events Conditions
12:52 AM 39.9 °F - 30.0 °F 68% 30.12 in 10.0 mi Calm Calm - N/A   Partly Cloudy
1:52 AM 39.9 °F 37.8 °F 30.0 °F 68% 30.09 in 10.0 mi North 3.5 mph - N/A   Scattered Clouds
2:52 AM 35.1 °F - 28.9 °F 78% 30.09 in 10.0 mi Calm Calm - N/A   Scattered Clouds
3:52 AM 37.0 °F 34.5 °F 30.0 °F 76% 30.07 in 10.0 mi West 3.5 mph - N/A   Partly Cloudy
4:52 AM 36.0 °F 30.3 °F 28.9 °F 76% 30.07 in 10.0 mi NNE 6.9 mph - N/A   Clear
5:52 AM 35.1 °F - 28.9 °F 78% 30.08 in 10.0 mi Calm Calm - N/A   Partly Cloudy
6:52 AM 34.0 °F 29.8 °F 28.0 °F 79% 30.09 in 10.0 mi WNW 4.6 mph - N/A   Scattered Clouds
7:52 AM 37.9 °F 34.4 °F 30.0 °F 73% 30.08 in 10.0 mi NE 4.6 mph - N/A   Scattered Clouds
8:52 AM 39.9 °F 35.8 °F 30.0 °F 68% 30.09 in 10.0 mi WNW 5.8 mph - N/A   Scattered Clouds
9:52 AM 45.0 °F - 30.9 °F 58% 30.07 in 10.0 mi Calm Calm - N/A   Scattered Clouds
10:52 AM 51.1 °F - 30.9 °F 46% 30.01 in 10.0 mi Calm Calm - N/A   Scattered Clouds
11:52 AM 54.0 °F - 30.0 °F 40% 29.95 in 10.0 mi Calm Calm - N/A   Scattered Clouds
12:52 PM 55.9 °F - 32.0 °F 40% 29.91 in 10.0 mi SW 5.8 mph - N/A   Scattered Clouds
1:52 PM 57.9 °F - 32.0 °F 37% 29.88 in 10.0 mi South 4.6 mph - N/A   Scattered Clouds
2:52 PM 60.1 °F - 30.9 °F 33% 29.86 in 10.0 mi South 4.6 mph - N/A   Scattered Clouds
3:52 PM 61.0 °F - 32.0 °F 34% 29.83 in 10.0 mi South 11.5 mph - N/A   Scattered Clouds
4:52 PM 57.9 °F - 34.0 °F 41% 29.85 in 10.0 mi South 3.5 mph - N/A   Scattered Clouds
5:52 PM 55.0 °F - 34.0 °F 45% 29.88 in 10.0 mi Calm Calm - N/A   Scattered Clouds
6:52 PM 54.0 °F - 34.0 °F 47% 29.89 in 10.0 mi East 3.5 mph - N/A   Mostly Cloudy
7:52 PM 50.0 °F - 35.1 °F 57% 29.88 in 10.0 mi ESE 5.8 mph - N/A   Mostly Cloudy
8:52 PM 46.9 °F - 35.1 °F 63% 29.88 in 10.0 mi SSE 5.8 mph - N/A   Mostly Cloudy
9:52 PM 48.9 °F - 34.0 °F 56% 29.87 in 10.0 mi East 4.6 mph - N/A   Mostly Cloudy
10:52 PM 45.0 °F 41.8 °F 34.0 °F 65% 29.86 in 10.0 mi SE 5.8 mph - N/A   Mostly Cloudy
11:52 PM 45.0 °F 42.6 °F 34.0 °F 65% 29.85 in 10.0 mi SSE 4.6 mph - N/A   Mostly Cloudy